Year,Month,Day,Hour,Minute,Value (Times are PST for temperature in C)
2009,04,16,07,41,6.80
2009,04,16,07,42,6.90
2009,04,16,07,43,7.00
2009,04,16,07,44,7.10
2009,04,16,07,45,7.20
2009,04,16,07,46,7.20
2009,04,16,07,47,7.20
2009,04,16,07,48,7.20
2009,04,16,07,49,7.30
2009,04,16,07,50,7.30
2009,04,16,07,51,7.40
2009,04,16,07,52,7.40
2009,04,16,07,53,7.40
2009,04,16,07,54,7.50
2009,04,16,07,55,7.50
2009,04,16,07,56,7.50
2009,04,16,07,57,7.50
2009,04,16,07,58,7.60
2009,04,16,07,59,7.60
2009,04,16,08,00,7.60
2009,04,16,08,01,7.60
2009,04,16,08,02,7.60
2009,04,16,08,03,7.70
2009,04,16,08,04,7.70
2009,04,16,08,05,7.70
2009,04,16,08,06,7.70
2009,04,16,08,07,7.70
2009,04,16,08,08,7.70
2009,04,16,08,09,7.70
2009,04,16,08,10,7.70
2009,04,16,08,11,7.70
2009,04,16,08,12,7.70
2009,04,16,08,13,7.70
2009,04,16,08,14,7.70
2009,04,16,08,15,7.70
2009,04,16,08,16,7.70
2009,04,16,08,17,7.70
2009,04,16,08,18,7.80
2009,04,16,08,19,7.80
2009,04,16,08,20,7.80
2009,04,16,08,21,7.90
2009,04,16,08,22,7.90
2009,04,16,08,23,8.00
2009,04,16,08,24,8.10
2009,04,16,08,25,8.20
2009,04,16,08,26,8.20
2009,04,16,08,27,8.30
2009,04,16,08,28,8.40
2009,04,16,08,29,8.50
2009,04,16,08,30,8.70
2009,04,16,08,31,8.80
2009,04,16,08,32,8.90
2009,04,16,08,33,8.90
2009,04,16,08,34,9.00
2009,04,16,08,35,9.00
2009,04,16,08,36,9.00
2009,04,16,08,37,8.90
2009,04,16,08,38,8.90
2009,04,16,08,39,8.80
2009,04,16,08,40,8.80
2009,04,16,08,41,8.80
2009,04,16,08,42,8.80
2009,04,16,08,43,8.80
2009,04,16,08,44,8.80
2009,04,16,08,45,8.80
2009,04,16,08,46,8.80
2009,04,16,08,47,8.90
2009,04,16,08,48,8.90
2009,04,16,08,49,8.90
2009,04,16,08,50,9.00
2009,04,16,08,51,9.00
2009,04,16,08,52,9.10
2009,04,16,08,53,9.10
2009,04,16,08,54,9.20
2009,04,16,08,55,9.20
2009,04,16,08,56,9.30
2009,04,16,08,57,9.40
2009,04,16,08,58,9.50
2009,04,16,08,59,9.60
2009,04,16,09,00,9.60
2009,04,16,09,01,9.60
2009,04,16,09,02,9.60
2009,04,16,09,03,9.60
2009,04,16,09,04,9.50
2009,04,16,09,05,9.60
2009,04,16,09,06,9.60
2009,04,16,09,07,9.60
2009,04,16,09,08,9.70
2009,04,16,09,09,9.80
2009,04,16,09,10,9.90
2009,04,16,09,11,10.10
2009,04,16,09,12,10.30
2009,04,16,09,13,10.30
2009,04,16,09,14,10.40
2009,04,16,09,15,10.40
2009,04,16,09,16,10.40
2009,04,16,09,17,10.50
2009,04,16,09,18,10.50
2009,04,16,09,19,10.40
2009,04,16,09,20,10.40
2009,04,16,09,21,10.50
2009,04,16,09,22,10.40
2009,04,16,09,23,10.30
2009,04,16,09,24,10.10
2009,04,16,09,25,10.00
2009,04,16,09,26,9.90
2009,04,16,09,27,10.00
2009,04,16,09,28,10.00
2009,04,16,09,29,10.10
2009,04,16,09,30,10.10
2009,04,16,09,31,10.10
2009,04,16,09,32,10.10
2009,04,16,09,33,10.30
2009,04,16,09,34,10.40
2009,04,16,09,35,10.40
2009,04,16,09,36,10.30
2009,04,16,09,37,10.30
2009,04,16,09,38,10.30
2009,04,16,09,39,10.30
2009,04,16,09,40,10.40
2009,04,16,09,41,10.30
2009,04,16,09,42,10.30
2009,04,16,09,43,10.30
2009,04,16,09,44,10.20
2009,04,16,09,45,10.20
2009,04,16,09,46,10.20
2009,04,16,09,47,10.20
2009,04,16,09,48,10.20
2009,04,16,09,49,10.10
2009,04,16,09,50,10.10
2009,04,16,09,51,10.10
2009,04,16,09,52,10.20
2009,04,16,09,53,10.20
2009,04,16,09,54,10.20
2009,04,16,09,55,10.20
2009,04,16,09,56,10.30
2009,04,16,09,57,10.30
2009,04,16,09,58,10.30
2009,04,16,09,59,10.50
2009,04,16,10,00,10.60
2009,04,16,10,01,10.60
2009,04,16,10,02,10.60
2009,04,16,10,03,10.60
2009,04,16,10,04,10.60
2009,04,16,10,05,10.50
2009,04,16,10,06,10.40
2009,04,16,10,07,10.30
2009,04,16,10,08,10.30
2009,04,16,10,09,10.30
2009,04,16,10,10,10.30
2009,04,16,10,11,10.30
2009,04,16,10,12,10.40
2009,04,16,10,13,10.50
2009,04,16,10,14,10.60
2009,04,16,10,15,10.60
2009,04,16,10,16,10.60
2009,04,16,10,17,10.70
2009,04,16,10,18,10.80
2009,04,16,10,19,10.70
2009,04,16,10,20,10.70
2009,04,16,10,21,10.80
2009,04,16,10,22,10.80
2009,04,16,10,23,10.80
2009,04,16,10,24,10.80
2009,04,16,10,25,10.80
2009,04,16,10,26,10.70
2009,04,16,10,27,10.60
2009,04,16,10,28,10.60
2009,04,16,10,29,10.60
2009,04,16,10,30,10.70
2009,04,16,10,31,10.70
2009,04,16,10,32,10.70
2009,04,16,10,33,10.80
2009,04,16,10,34,10.80
2009,04,16,10,35,10.80
2009,04,16,10,36,10.80
2009,04,16,10,37,10.70
2009,04,16,10,38,10.70
2009,04,16,10,39,10.70
2009,04,16,10,40,10.70
2009,04,16,10,41,10.70
2009,04,16,10,42,10.80
2009,04,16,10,43,10.90
2009,04,16,10,44,10.80
2009,04,16,10,45,10.70
2009,04,16,10,46,10.80
2009,04,16,10,47,10.80
2009,04,16,10,48,10.70
2009,04,16,10,49,10.60
2009,04,16,10,50,10.60
2009,04,16,10,51,10.70
2009,04,16,10,52,10.80
2009,04,16,10,53,10.80
2009,04,16,10,54,10.80
2009,04,16,10,55,10.70
2009,04,16,10,56,10.70
2009,04,16,10,57,10.80
2009,04,16,10,58,10.90
2009,04,16,10,59,10.90
2009,04,16,11,00,10.90
2009,04,16,11,01,10.90
2009,04,16,11,02,10.80
2009,04,16,11,03,10.80
2009,04,16,11,04,10.80
2009,04,16,11,05,10.90
2009,04,16,11,06,10.70
2009,04,16,11,07,10.60
2009,04,16,11,08,10.60
2009,04,16,11,09,10.70
2009,04,16,11,10,10.70
2009,04,16,11,11,10.70
2009,04,16,11,12,10.70
2009,04,16,11,13,10.80
2009,04,16,11,14,10.80
2009,04,16,11,15,10.80
2009,04,16,11,16,10.80
2009,04,16,11,17,10.80
2009,04,16,11,18,10.70
2009,04,16,11,19,10.70
2009,04,16,11,20,10.70
2009,04,16,11,21,10.70
2009,04,16,11,22,10.70
2009,04,16,11,23,10.70
2009,04,16,11,24,10.70
2009,04,16,11,25,10.80
2009,04,16,11,26,10.70
2009,04,16,11,27,10.70
2009,04,16,11,28,10.70
2009,04,16,11,29,10.70
2009,04,16,11,30,10.80
2009,04,16,11,31,10.80
2009,04,16,11,32,10.90
2009,04,16,11,33,10.90
2009,04,16,11,34,10.90
2009,04,16,11,35,10.80
2009,04,16,11,36,10.80
2009,04,16,11,37,10.80
2009,04,16,11,38,10.80
2009,04,16,11,39,10.80
2009,04,16,11,40,10.70
2009,04,16,11,41,10.50
2009,04,16,11,42,10.40
2009,04,16,11,43,10.40
2009,04,16,11,44,10.40
2009,04,16,11,45,10.40
2009,04,16,11,46,10.50
2009,04,16,11,47,10.60
2009,04,16,11,48,10.70
2009,04,16,11,49,10.60
2009,04,16,11,50,10.50
2009,04,16,11,51,10.50
2009,04,16,11,52,10.50
2009,04,16,11,53,10.60
2009,04,16,11,54,10.70
2009,04,16,11,55,10.70
2009,04,16,11,56,10.70
2009,04,16,11,57,10.80
2009,04,16,11,58,10.80
2009,04,16,11,59,10.80
2009,04,16,12,00,10.80
2009,04,16,12,01,10.70
2009,04,16,12,02,10.70
2009,04,16,12,03,10.70
2009,04,16,12,04,10.60
2009,04,16,12,05,10.60
2009,04,16,12,06,10.50
2009,04,16,12,07,10.60
2009,04,16,12,08,10.60
2009,04,16,12,09,10.60
2009,04,16,12,10,10.50
2009,04,16,12,11,10.50
2009,04,16,12,12,10.50
2009,04,16,12,13,10.40
2009,04,16,12,14,10.40
2009,04,16,12,15,10.40
2009,04,16,12,16,10.40
2009,04,16,12,17,10.30
2009,04,16,12,18,10.30
2009,04,16,12,19,10.40
2009,04,16,12,20,10.40
2009,04,16,12,21,10.40
2009,04,16,12,22,10.40
2009,04,16,12,23,10.40
2009,04,16,12,24,10.40
2009,04,16,12,25,10.30
2009,04,16,12,26,10.30
2009,04,16,12,27,10.20
2009,04,16,12,28,10.20
2009,04,16,12,29,10.20
2009,04,16,12,30,10.30
2009,04,16,12,31,10.30
2009,04,16,12,32,10.30
2009,04,16,12,33,10.30
2009,04,16,12,34,10.30
2009,04,16,12,35,10.40
2009,04,16,12,36,10.50
2009,04,16,12,37,10.40
2009,04,16,12,38,10.40
2009,04,16,12,39,10.50
2009,04,16,12,40,10.60
2009,04,16,12,41,10.60
2009,04,16,12,42,10.60
2009,04,16,12,43,10.60
2009,04,16,12,44,10.60
2009,04,16,12,45,10.60
2009,04,16,12,46,10.60
2009,04,16,12,47,10.60
2009,04,16,12,48,10.60
2009,04,16,12,49,10.70
2009,04,16,12,50,10.70
2009,04,16,12,51,10.70
2009,04,16,12,52,10.80
2009,04,16,12,53,10.80
2009,04,16,12,54,10.90
2009,04,16,12,55,11.00
2009,04,16,12,56,11.00
2009,04,16,12,57,11.00
2009,04,16,12,58,11.00
2009,04,16,12,59,11.00
2009,04,16,13,00,11.10
2009,04,16,13,01,11.10
2009,04,16,13,02,11.10
2009,04,16,13,03,11.10
2009,04,16,13,04,11.10
2009,04,16,13,05,11.00
2009,04,16,13,06,11.00
2009,04,16,13,07,11.00
2009,04,16,13,08,11.00
2009,04,16,13,09,11.00
2009,04,16,13,10,11.00
2009,04,16,13,11,11.00
2009,04,16,13,12,10.90
2009,04,16,13,13,10.90
2009,04,16,13,14,10.90
2009,04,16,13,15,10.90
2009,04,16,13,16,10.90
2009,04,16,13,17,11.00
2009,04,16,13,18,10.90
2009,04,16,13,19,10.90
2009,04,16,13,20,10.90
2009,04,16,13,21,10.90
2009,04,16,13,22,10.90
2009,04,16,13,23,10.90
2009,04,16,13,24,10.80
2009,04,16,13,25,10.80
2009,04,16,13,26,10.70
2009,04,16,13,27,10.70
2009,04,16,13,28,10.70
2009,04,16,13,29,10.80
2009,04,16,13,30,10.80
2009,04,16,13,31,10.80
2009,04,16,13,32,10.80
2009,04,16,13,33,10.80
2009,04,16,13,34,10.80
2009,04,16,13,35,10.70
2009,04,16,13,36,10.70
2009,04,16,13,37,10.70
2009,04,16,13,38,10.80
2009,04,16,13,39,10.80
2009,04,16,13,40,10.80
2009,04,16,13,41,10.80
2009,04,16,13,42,10.90
2009,04,16,13,43,10.80
2009,04,16,13,44,10.80
2009,04,16,13,45,10.80
2009,04,16,13,46,10.70
2009,04,16,13,47,10.80
2009,04,16,13,48,10.80
2009,04,16,13,49,10.80
2009,04,16,13,50,10.90
2009,04,16,13,51,10.90
2009,04,16,13,52,10.80
2009,04,16,13,53,10.80
2009,04,16,13,54,10.80
2009,04,16,13,55,10.80
2009,04,16,13,56,10.80
2009,04,16,13,57,10.80
2009,04,16,13,58,10.80
2009,04,16,13,59,10.90
2009,04,16,14,00,10.80
2009,04,16,14,01,10.80
2009,04,16,14,02,10.80
2009,04,16,14,03,10.80
2009,04,16,14,04,10.80
2009,04,16,14,05,10.80
2009,04,16,14,06,10.80
2009,04,16,14,07,10.70
2009,04,16,14,08,10.70
2009,04,16,14,09,10.70
2009,04,16,14,10,10.70
2009,04,16,14,11,10.70
2009,04,16,14,12,10.70
2009,04,16,14,13,10.70
2009,04,16,14,14,10.70
2009,04,16,14,15,10.70
2009,04,16,14,16,10.70
2009,04,16,14,17,10.70
2009,04,16,14,18,10.60
2009,04,16,14,19,10.60
2009,04,16,14,20,10.60
2009,04,16,14,21,10.60
2009,04,16,14,22,10.60
2009,04,16,14,23,10.60
2009,04,16,14,24,10.60
2009,04,16,14,25,10.60
2009,04,16,14,26,10.60
2009,04,16,14,27,10.50
2009,04,16,14,28,10.40
2009,04,16,14,29,10.40
2009,04,16,14,30,10.40
2009,04,16,14,31,10.40
2009,04,16,14,32,10.40
2009,04,16,14,33,10.40
2009,04,16,14,34,10.40
2009,04,16,14,35,10.40
2009,04,16,14,36,10.40
2009,04,16,14,37,10.40
2009,04,16,14,38,10.40
2009,04,16,14,39,10.40
2009,04,16,14,40,10.40
2009,04,16,14,41,10.30
2009,04,16,14,42,10.30
2009,04,16,14,43,10.30
2009,04,16,14,44,10.30
2009,04,16,14,45,10.20
2009,04,16,14,46,10.20
2009,04,16,14,47,10.30
2009,04,16,14,48,10.30
2009,04,16,14,49,10.30
2009,04,16,14,50,10.30
2009,04,16,14,51,10.30
2009,04,16,14,52,10.30
2009,04,16,14,53,10.30
2009,04,16,14,54,10.30
2009,04,16,14,55,10.30
2009,04,16,14,56,10.30
2009,04,16,14,57,10.30
2009,04,16,14,58,10.30
2009,04,16,14,59,10.40
2009,04,16,15,00,10.40
2009,04,16,15,01,10.40
2009,04,16,15,02,10.30
2009,04,16,15,03,10.30
2009,04,16,15,04,10.30
2009,04,16,15,05,10.30
2009,04,16,15,06,10.30
2009,04,16,15,07,10.30
2009,04,16,15,08,10.30
2009,04,16,15,09,10.40
2009,04,16,15,10,10.40
2009,04,16,15,11,10.30
2009,04,16,15,12,10.30
2009,04,16,15,13,10.30
2009,04,16,15,14,10.30
2009,04,16,15,15,10.30
2009,04,16,15,16,10.30
2009,04,16,15,17,10.30
2009,04,16,15,18,10.30
2009,04,16,15,19,10.30
2009,04,16,15,20,10.30
2009,04,16,15,21,10.30
2009,04,16,15,22,10.30
2009,04,16,15,23,10.30
2009,04,16,15,24,10.30
2009,04,16,15,25,10.30
2009,04,16,15,26,10.20
2009,04,16,15,27,10.20
2009,04,16,15,28,10.20
2009,04,16,15,29,10.10
2009,04,16,15,30,10.10
2009,04,16,15,31,10.10
2009,04,16,15,32,10.00
2009,04,16,15,33,10.00
2009,04,16,15,34,10.00
2009,04,16,15,35,10.00
2009,04,16,15,36,10.00
2009,04,16,15,37,10.00
2009,04,16,15,38,10.00
2009,04,16,15,39,10.00
2009,04,16,15,40,10.10
2009,04,16,15,41,10.10
2009,04,16,15,42,10.10
2009,04,16,15,43,10.10
2009,04,16,15,44,10.10
2009,04,16,15,45,10.10
2009,04,16,15,46,10.00
2009,04,16,15,47,10.00
2009,04,16,15,48,10.00
2009,04,16,15,49,9.90
2009,04,16,15,50,9.90
2009,04,16,15,51,9.90
2009,04,16,15,52,9.90
2009,04,16,15,53,9.90
2009,04,16,15,54,9.90
2009,04,16,15,55,9.90
2009,04,16,15,56,9.90
2009,04,16,15,57,9.90
2009,04,16,15,58,9.90
2009,04,16,15,59,9.90
2009,04,16,16,00,9.90
2009,04,16,16,01,10.00
2009,04,16,16,02,10.00
2009,04,16,16,03,10.00
2009,04,16,16,04,10.00
2009,04,16,16,05,10.00
2009,04,16,16,06,10.00
2009,04,16,16,07,10.00
2009,04,16,16,08,10.00
2009,04,16,16,09,10.00
2009,04,16,16,10,9.90
2009,04,16,16,11,9.90
2009,04,16,16,12,10.00
2009,04,16,16,13,10.00
2009,04,16,16,14,10.00
2009,04,16,16,15,10.00
2009,04,16,16,16,10.00
2009,04,16,16,17,10.00
2009,04,16,16,18,10.00
2009,04,16,16,19,10.00
2009,04,16,16,20,10.00
2009,04,16,16,21,10.10
2009,04,16,16,22,10.10
2009,04,16,16,23,10.10
2009,04,16,16,24,10.10
2009,04,16,16,25,10.10
2009,04,16,16,26,10.10
2009,04,16,16,27,10.10
2009,04,16,16,28,10.10
2009,04,16,16,29,10.10
2009,04,16,16,30,10.10
2009,04,16,16,31,10.10
2009,04,16,16,32,10.20
2009,04,16,16,33,10.20
2009,04,16,16,34,10.20
2009,04,16,16,35,10.20
2009,04,16,16,36,10.20
2009,04,16,16,37,10.30
2009,04,16,16,38,10.30
2009,04,16,16,39,10.30
2009,04,16,16,40,10.30
2009,04,16,16,41,10.40
2009,04,16,16,42,10.40
2009,04,16,16,43,10.40
2009,04,16,16,44,10.40
2009,04,16,16,45,10.30
2009,04,16,16,46,10.30
2009,04,16,16,47,10.30
2009,04,16,16,48,10.30
2009,04,16,16,49,10.30
2009,04,16,16,50,10.30
2009,04,16,16,51,10.30
2009,04,16,16,52,10.30
2009,04,16,16,53,10.30
2009,04,16,16,54,10.30
2009,04,16,16,55,10.30
2009,04,16,16,56,10.30
2009,04,16,16,57,10.30
2009,04,16,16,58,10.30
2009,04,16,16,59,10.30
2009,04,16,17,00,10.30
2009,04,16,17,01,10.30
2009,04,16,17,02,10.30
2009,04,16,17,03,10.30
2009,04,16,17,04,10.30
2009,04,16,17,05,10.30
2009,04,16,17,06,10.30
2009,04,16,17,07,10.30
2009,04,16,17,08,10.30
2009,04,16,17,09,10.40
2009,04,16,17,10,10.40
2009,04,16,17,11,10.40
2009,04,16,17,12,10.40
2009,04,16,17,13,10.40
2009,04,16,17,14,10.30
2009,04,16,17,15,10.30
2009,04,16,17,16,10.30
2009,04,16,17,17,10.30
2009,04,16,17,18,10.40
2009,04,16,17,19,10.40
2009,04,16,17,20,10.40
2009,04,16,17,21,10.40
2009,04,16,17,22,10.40
2009,04,16,17,23,10.40
2009,04,16,17,24,10.40
2009,04,16,17,25,10.40
2009,04,16,17,26,10.40
2009,04,16,17,27,10.40
2009,04,16,17,28,10.40
2009,04,16,17,29,10.40
2009,04,16,17,30,10.40
2009,04,16,17,31,10.40
2009,04,16,17,32,10.40
2009,04,16,17,33,10.40
2009,04,16,17,34,10.40
2009,04,16,17,35,10.40
2009,04,16,17,36,10.40
2009,04,16,17,37,10.40
2009,04,16,17,38,10.40
2009,04,16,17,39,10.40
2009,04,16,17,40,10.40
2009,04,16,17,41,10.40
2009,04,16,17,58,10.80
2009,04,16,17,59,10.80
2009,04,16,18,00,10.80
2009,04,16,18,01,10.90
2009,04,16,18,02,10.90
2009,04,16,18,03,10.90
2009,04,16,18,04,10.90
2009,04,16,18,05,10.90
2009,04,16,18,06,10.90
2009,04,16,18,07,10.90
2009,04,16,18,08,10.90
2009,04,16,18,09,10.90
2009,04,16,18,10,10.90
2009,04,16,18,11,10.90
2009,04,16,18,12,10.90
2009,04,16,18,13,10.80
2009,04,16,18,14,10.80
2009,04,16,18,15,10.80
2009,04,16,18,16,10.80
2009,04,16,18,17,10.80
2009,04,16,18,18,10.80
2009,04,16,18,19,10.80
2009,04,16,18,20,10.80
2009,04,16,18,21,10.80
2009,04,16,18,22,10.80
2009,04,16,18,23,10.80
2009,04,16,18,24,10.80
